Find Starlink 34474

NORAD ID: 64474 Int'l Des: 2025-133 Owner: SPXS Country: US Constellation: starlink operational
LEOCIRCULAR

Live Position

Loading 3D Globe...

About Starlink 34474

Description loading...

Upcoming Passes

Passes for default location (London). Set your location on the main map for personalized predictions.

Altitude History

Loading altitude history...

Two-Line Element Set

1 64474U 25133C 26103.87768635 .00005842 00000-0 20922-3 0 9998
2 64474 53.1601 313.5116 0000863 16.1494 343.9534 15.30197324 46551
Epoch: Apr 13, 2026 • Age: 12 hours

Current Status

Altitude 489.3 km
Velocity 7.62 km/s
Sub-Earth Point -42.63°S, 75.05°W
Launch Date Jun 23, 2025
Age 0.8 years
Type internet

Technical Details

Classification Payload
Mass 575.00 kg
Dry Mass 530.00 kg
Total Mass 575.00 kg
Length 0.30 m
Diameter 4.10 m
Span 29.00 m
Shape Box + pan
Manufacturer SPXS
Bus Type Starlink V2MO
Phase Status In Orbit
Owner/State SPXS/US

Most Searched